カタログに戻る

ALEXIS

運用中科学LEO
NORAD 22638·PAYLOAD·🇺🇸 United States

打ち上げ Apr 25, 1993 から Vandenberg Space Force Base

Loading…

次のパス (今後24時間)

TLE

最新Source: Space-Track

元期: Sep 14, 2026, 00:04 UTC

1 22638U 93026A   26257.00324714  .00000046  00000-0  37093-4 0  9990
2 22638  69.9190  93.7511 0057609  34.2400 326.2418 14.33690969122891

AllMySatでALEXISをリアルタイム追跡

Download on the App Store